Location: Cambroso
(45.2833°N, 12.0850°E)
Time: 14:55:36
(UTC+00:00)

Cosmos 1603 - Pass Details

Date: 21 January 2021
Orbit: 829 x 861 km, 71.0° (Epoch: 25 February)

Event Time Altitude Azimuth Distance (km) Brightness Sun altitude
Rises 16:29:37 0° 332° (NNW) 3,422 6.9 -5.0°
Reaches altitude 10° 16:32:04 10° 331° (NNW) 2,487 6.2 -5.4°
Maximum altitude 16:37:45 73° 248° (WSW) 897 4.1 -6.3°
Drops below altitude 10° 16:43:27 10° 164° (SSE) 2,487 6.2 -7.2°
Sets 16:45:55 0° 163° (SSE) 3,421 6.9 -7.6°
